Temperature
19 18 18 18 18 18 18 18 18 18 18 17 18 18 18 18 18 18 18 18 18 18 18 18 18 17 17 17 17 17 17 17 17 17 17 17 16 16 16 16 16 16 16
18 18 18 18 18 18 18 18 18 18 18 18 18 18 18 18 18 18 18 18 18 18 18 18 18 18 17 17 17 17 17 17 17 17 17 17 17 17 16 16 16 16 16
18 18 18 18 18 18 18 18 18 18 18 18 18 18 18 18 18 18 18 18 18 18 18 18 18 18 18 18 17 17 17 17 17 17 17 17 17 17 17 16 16 16 16
18 18 18 18 18 18 18 18 18 18 18 18 18 18 18 18 18 18 18 18 18 18 18 18 18 18 18 18 18 18 17 17 17 17 17 17 17 17 17 17 16 16 16
18 18 18 18 18 18 18 18 18 18 18 18 18 18 18 18 18 18 18 18 18 18 18 18 18 18 18 18 18 17 17 17 17 17 17 17 17 17 17 17 16 16 16
18 18 18 18 18 18 18 18 18 17 18 18 18 18 18 18 18 18 18 18 18 18 18 18 18 18 18 18 18 17 17 17 17 17 17 17 17 17 17 17 16 16 16
18 18 18 18 18 18 18 18 18 18 18 17 17 18 18 18 18 18 18 18 18 18 18 18 18 18 18 18 18 18 17 17 17 17 17 17 17 17 17 17 17 16 16
18 18 18 18 18 18 18 18 18 18 18 17 17 17 17 18 18 18 18 18 18 18 18 18 18 18 18 18 18 18 18 17 17 17 17 17 17 17 17 17 17 16 16
18 18 18 18 18 18 18 18 18 18 18 17 17 17 17 17 18 18 18 18 18 18 18 18 18 18 18 18 18 18 18 18 17 17 17 17 17 17 17 17 16 16 16
18 18 18 18 18 18 18 18 18 18 17 17 17 17 17 17 17 17 18 18 18 18 18 18 18 18 18 18 18 18 18 18 17 17 17 17 17 17 17 16 16 16 16
18 18 18 18 18 18 18 18 18 18 18 17 17 17 17 17 17 17 17 18 18 18 18 18 18 18 18 18 18 18 18 18 17 17 17 17 17 17 17 17 16 16 16
18 18 18 18 18 18 18 18 18 18 17 17 17 17 17 17 17 17 17 18 18 18 18 18 18 18 18 18 18 18 18 18 18 17 17 17 17 17 17 17 16 16 16
19 19 18 18 18 18 18 18 18 17 17 17 17 17 17 17 17 17 17 17 17 18 18 18 18 18 18 18 18 18 18 18 17 17 17 17 17 17 17 16 16 16 16
18 18 18 18 18 18 18 18 17 18 17 17 17 17 17 17 17 17 17 17 17 17 17 17 18 18 17 17 17 17 17 17 17 17 17 17 17 17 16 16 16 16 16
18 18 18 18 18 18 18 18 18 18 17 17 17 17 17 17 17 17 17 17 17 16 17 17 17 17 17 17 17 17 17 17 17 17 17 17 17 17 16 16 16 16 16
18 18 18 18 18 18 18 18 18 18 17 17 17 17 17 17 17 17 17 17 17 16 16 17 17 17 17 17 17 17 17 17 17 17 17 17 17 16 16 16 16 16 16
18 18 18 18 18 18 18 18 18 18 17 17 17 17 17 17 17 17 17 17 17 16 16 17 17 17 17 17 16 16 16 16 16 16 16 16 16 16 16 16 16 16 15
18 18 18 18 18 18 18 18 17 17 17 17 17 17 17 17 17 17 17 17 16 16 16 16 16 16 16 16 16 16 16 16 16 16 16 16 16 16 16 16 16 15 15
18 18 17 17 17 17 17 17 17 17 17 17 17 17 17 17 17 17 17 16 16 16 16 16 16 16 16 16 16 16 16 16 16 16 16 16 16 16 16 15 15 15 15
17 17 17 17 17 17 17 17 17 17 17 17 17 17 17 17 16 16 16 16 16 16 16 16 16 16 15 15 15 15 15 15 15 15 15 15 15 15 15 15 15 15 15
17 17 17 17 17 17 17 17 17 17 17 17 17 17 16 16 16 16 16 16 16 16 15 15 15 15 15 15 15 15 15 15 15 15 15 15 15 15 15 15 15 15 15
17 17 17 17 17 16 16 16 16 16 16 16 16 16 16 16 16 16 15 15 15 15 15 15 15 15 15 14 14 14 14 14 14 14 14 14 14 14 14 14 14 14 14
16 16 16 16 16 16 16 16 16 16 16 16 16 16 16 16 16 15 15 15 15 15 15 15 14 14 14 14 14 14 14 14 14 14 14 14 14 14 14 14 14 14 14
16 16 16 16 16 16 16 16 16 16 16 15 15 15 15 15 15 15 15 15 15 15 15 14 14 14 14 14 14 13 13 13 13 13 13 13 13 14 14 14 13 13 13
16 16 16 16 16 16 16 16 15 15 15 15 15 15 15 15 15 14 14 14 14 14 14 14 14 14 13 13 13 13 13 13 13 13 13 13 13 13 13 13 13 13 13
16 15 15 15 15 15 15 15 15 15 15 15 15 14 14 14 14 14 14 14 14 14 14 14 13 13 13 13 13 13 13 12 12 12 12 12 12 12 12 12 12 12 12
Wind_Speed
4 3 3 3 3 3 3 2 2 2 1 0 1 1 1 2 2 3 5 7 8 10 10 10 10 11 11 11 11 11 11 11 11 10 11 11 11 12 12 12 11 11 10
4 4 3 3 3 3 4 3 2 2 1 1 1 2 2 3 3 3 4 6 7 8 9 10 11 11 11 11 11 11 11 11 11 11 11 11 12 13 13 13 12 12 11
6 4 3 3 3 4 4 3 2 2 1 1 1 2 2 3 3 3 4 5 6 8 9 10 11 11 11 11 11 11 12 12 11 12 12 12 12 12 13 13 13 12 12
7 5 3 3 4 4 3 3 2 2 1 1 1 1 1 2 3 3 4 5 5 6 8 10 10 10 11 11 11 11 12 12 12 12 12 12 12 13 13 13 13 13 13
7 6 4 3 4 3 3 3 3 3 2 1 1 2 1 2 2 2 2 3 4 5 6 8 9 9 10 10 10 10 11 11 11 12 12 13 13 14 14 14 14 14 14
7 6 4 4 4 3 3 3 3 2 2 2 1 1 2 2 1 1 2 2 3 5 6 6 6 7 9 10 10 11 10 10 11 12 13 13 13 13 13 14 14 15 15
7 6 4 4 4 4 4 4 3 3 2 2 1 1 2 1 1 1 2 2 3 4 5 6 6 7 7 9 11 11 11 11 12 12 13 13 13 14 14 14 15 15 16
7 7 6 5 4 4 4 4 3 2 2 2 2 1 2 2 2 2 2 2 3 3 3 5 6 7 8 8 9 11 12 12 13 13 13 13 13 13 14 14 14 14 14
7 7 6 5 5 5 5 5 5 4 3 2 2 2 1 2 2 2 2 2 2 2 3 4 6 8 8 8 9 10 12 12 12 13 13 13 13 13 13 13 13 13 13
5 6 6 6 6 5 6 6 5 4 4 3 2 2 2 2 1 2 2 2 3 3 4 4 5 7 8 8 9 10 11 11 11 12 11 11 11 12 12 12 12 12 12
4 5 6 6 5 5 6 6 5 5 5 4 4 2 2 2 2 2 3 3 2 3 4 5 5 6 7 7 8 9 11 12 12 11 11 11 11 10 10 11 11 11 11
3 4 5 5 5 5 5 6 6 6 6 5 4 4 3 3 3 4 4 3 4 3 3 4 4 5 6 6 8 9 10 10 11 11 11 11 11 11 11 11 11 11 11
3 4 4 5 5 5 5 5 5 6 6 6 6 5 5 5 3 3 3 3 3 3 2 2 3 4 5 5 6 7 7 7 8 9 10 10 10 10 11 10 10 11 11
4 4 5 5 5 5 5 5 5 6 6 7 7 6 5 6 5 4 4 3 3 3 2 3 2 2 3 4 5 5 4 6 7 7 7 8 8 8 9 9 9 9 9
4 4 4 5 5 5 5 5 5 6 5 6 7 7 6 5 5 5 5 4 4 4 5 3 2 1 2 3 4 3 4 4 5 6 6 6 7 7 7 8 8 8 8
4 4 4 4 5 5 5 5 4 5 5 6 5 6 6 5 4 4 4 4 4 4 5 3 3 3 3 3 3 3 4 4 4 5 6 6 6 7 7 8 8 8 7
4 5 5 4 5 5 5 5 5 5 6 6 6 6 6 5 4 4 4 4 4 4 6 5 2 3 3 3 3 3 3 3 3 4 5 6 7 7 7 7 7 8 8
4 5 5 5 5 5 5 5 6 6 6 7 6 6 6 5 5 4 4 5 5 5 5 6 4 2 3 3 3 3 3 3 3 4 6 6 6 7 7 7 8 7 8
3 3 4 4 5 4 4 5 6 6 6 7 6 7 6 6 6 5 5 5 5 4 4 4 4 2 2 2 2 3 3 3 4 4 5 6 6 6 7 7 8 8 8
2 3 3 4 4 5 5 5 6 6 6 6 6 6 6 6 6 6 5 6 5 4 4 4 3 3 3 2 2 3 3 3 3 4 4 4 5 6 7 7 8 8 8
3 3 3 3 4 4 5 5 5 5 4 5 5 5 5 6 6 6 5 5 4 4 3 3 4 3 3 3 3 3 4 4 4 3 3 3 3 3 4 6 7 8 8
3 3 3 3 3 4 4 6 5 4 4 4 4 3 3 3 4 4 5 5 5 5 5 4 4 4 5 4 4 4 3 3 3 2 2 4 3 4 4 4 6 8 9
3 3 3 3 4 4 4 5 5 4 4 3 3 2 2 1 2 2 2 3 3 4 5 5 5 5 5 4 4 5 4 4 5 2 2 4 3 4 4 5 7 8 8
4 4 4 4 4 4 4 5 5 4 4 4 3 3 3 2 1 2 1 2 2 3 4 4 5 6 6 5 5 5 5 4 3 2 3 3 3 4 4 4 6 7 8
3 3 3 3 3 3 3 4 5 3 3 3 3 3 3 3 2 2 2 2 3 3 2 3 3 4 4 4 3 2 2 2 4 3 3 3 3 3 4 3 3 5 6
3 3 3 3 4 4 4 4 4 3 3 2 2 2 3 3 3 2 3 3 4 4 3 3 3 3 3 2 3 4 4 3 3 3 3 3 2 2 3 2 2 3 4
Wind_Direction
156 149 144 154 159 159 152 138 130 125 127 159 226 232 255 270 233 213 219 217 214 216 219 220 220 221 221 222 224 226 224 222 220 221 223 225 224 222 220 221 221 221 221
166 159 157 163 174 175 171 166 166 160 174 215 241 256 253 249 236 225 227 227 221 219 224 228 231 231 233 233 232 232 231 228 225 225 229 232 229 226 226 227 226 225 224
175 170 166 173 187 176 166 165 161 151 171 197 228 248 248 246 242 233 230 233 228 224 225 230 235 236 238 240 238 238 235 231 228 227 230 232 231 230 231 231 230 230 228
180 174 175 185 186 172 162 160 166 156 181 201 228 257 258 258 254 241 230 227 227 228 228 232 238 243 243 242 243 241 237 234 231 231 232 232 231 232 233 234 234 234 231
181 179 186 194 183 172 170 177 168 166 180 210 245 259 264 263 255 249 237 230 229 229 232 238 242 246 247 247 248 247 242 234 233 235 237 236 235 236 236 237 237 236 233
184 183 190 191 180 170 180 178 168 165 177 191 243 291 299 285 267 247 241 240 237 238 240 239 245 255 256 253 252 248 242 237 237 238 239 241 241 241 240 239 240 237 235
188 188 192 184 178 183 189 178 160 164 169 148 112 342 333 311 283 261 245 244 249 248 246 240 242 247 255 255 253 249 244 242 242 241 241 242 242 242 241 241 241 239 237
192 194 187 191 184 180 179 178 166 167 183 162 148 100 343 329 309 279 261 246 256 250 245 245 244 246 248 250 256 253 248 247 248 249 247 244 243 242 242 243 243 243 242
199 201 198 193 186 184 193 195 186 182 191 190 177 161 171 245 296 296 274 258 264 257 254 253 249 249 247 245 252 256 252 250 253 256 254 248 244 242 241 243 244 243 242
200 202 203 199 193 192 197 203 196 188 181 199 199 199 202 188 215 291 289 267 268 266 264 263 261 256 247 242 244 250 253 251 251 254 253 249 244 243 242 241 242 241 240
206 204 202 200 199 200 201 203 198 195 196 200 198 193 205 214 215 226 274 289 289 267 260 259 259 260 255 248 246 248 247 248 249 251 253 255 252 250 245 244 245 245 241
215 213 207 201 202 203 204 207 206 204 206 208 208 202 198 205 211 213 243 269 283 282 271 258 256 258 256 251 248 249 247 247 251 253 255 255 253 252 248 246 245 246 246
222 219 212 204 205 210 208 204 206 211 209 210 214 219 218 222 210 203 222 256 272 286 284 267 251 254 257 254 252 252 251 252 254 255 256 256 253 250 248 245 242 245 245
225 218 207 209 211 211 214 207 214 219 216 219 225 222 225 227 216 208 203 216 275 286 276 270 272 262 269 267 261 255 260 252 249 250 253 253 251 248 244 238 239 242 241
228 215 208 211 214 213 213 210 221 225 218 223 229 228 229 230 220 217 209 204 217 265 278 265 262 283 280 276 268 259 258 263 258 252 248 247 247 244 241 235 234 238 238
226 214 213 212 214 213 211 213 226 229 223 230 227 226 230 230 221 215 211 210 212 227 258 261 248 276 291 282 282 268 263 261 254 254 251 247 244 240 238 235 232 231 232
223 219 215 210 213 214 210 211 225 226 225 233 233 227 231 221 217 220 212 211 217 217 247 270 256 276 273 277 299 294 283 268 260 253 250 244 241 239 238 236 233 231 231
230 224 215 215 223 225 217 217 230 230 228 235 235 228 231 225 219 219 215 221 224 219 229 259 270 269 259 261 269 276 280 272 261 256 253 249 243 242 241 239 236 233 233
245 238 219 219 225 227 228 229 230 233 237 238 233 227 230 220 222 220 217 225 230 227 222 239 261 264 269 262 267 275 273 271 271 262 257 254 248 247 244 241 238 236 235
237 243 233 225 224 224 227 230 228 226 235 238 234 231 231 224 224 222 219 220 220 221 219 229 253 266 265 263 251 262 276 269 274 273 263 257 252 249 245 243 243 241 239
231 227 232 236 234 227 228 230 232 230 229 239 243 240 238 229 223 221 223 215 208 215 220 230 246 255 254 247 250 247 264 276 272 250 259 264 264 262 254 247 243 241 237
228 219 224 234 239 241 234 222 217 222 225 227 236 244 246 234 224 218 218 211 202 211 218 222 238 247 255 250 253 254 258 267 271 234 242 265 252 263 265 253 248 241 238
228 232 234 230 237 238 228 218 201 193 203 213 215 214 231 225 203 224 230 227 228 225 210 210 229 242 247 243 242 252 247 248 257 250 231 264 255 268 270 261 250 243 239
228 227 229 226 237 243 227 215 196 191 197 208 208 200 202 222 211 198 218 246 256 249 238 228 235 245 247 245 232 237 247 256 265 251 221 253 265 275 285 272 256 246 240
234 229 225 226 235 250 232 213 198 198 203 216 218 208 204 218 227 181 189 239 272 280 262 246 248 252 258 251 226 219 230 246 271 266 225 243 266 286 281 267 256 242 240
239 235 241 242 236 247 240 214 189 188 201 217 226 224 214 218 227 197 208 224 249 266 281 289 289 295 286 273 230 215 219 232 259 264 222 224 255 278 280 266 266 268 260
Height
1538 1540 1542 1544 1546 1547 1549 1552 1553 1555 1557 1559 1560 1561 1563 1563 1564 1565 1566 1567 1567 1568 1568 1569 1569 1570 1570 1571 1572 1572 1573 1573 1574 1574 1574 1575 1576 1576 1577 1578 1578 1579 1580
1539 1540 1542 1544 1546 1549 1550 1552 1554 1555 1557 1559 1560 1561 1562 1563 1563 1564 1565 1566 1567 1567 1568 1568 1568 1569 1569 1570 1570 1571 1571 1571 1572 1572 1573 1573 1574 1574 1575 1576 1576 1577 1578
1539 1541 1542 1545 1547 1549 1551 1553 1554 1555 1557 1558 1559 1560 1561 1562 1563 1563 1564 1565 1566 1566 1567 1567 1567 1568 1568 1568 1568 1569 1569 1569 1570 1570 1571 1571 1572 1572 1573 1573 1574 1575 1575
1539 1541 1543 1545 1547 1549 1551 1552 1554 1555 1556 1557 1559 1560 1561 1561 1562 1563 1563 1564 1565 1565 1566 1566 1566 1566 1566 1567 1567 1567 1567 1567 1568 1568 1568 1569 1569 1570 1570 1571 1572 1572 1573
1539 1541 1543 1545 1547 1549 1550 1552 1553 1554 1556 1557 1558 1559 1560 1560 1561 1561 1562 1563 1564 1564 1564 1565 1565 1565 1565 1565 1565 1565 1565 1565 1565 1566 1566 1567 1567 1567 1568 1569 1569 1570 1570
1539 1541 1543 1544 1546 1548 1550 1551 1552 1554 1555 1556 1557 1557 1558 1559 1560 1560 1561 1561 1562 1562 1562 1563 1563 1563 1563 1563 1563 1563 1563 1563 1563 1563 1564 1564 1564 1565 1565 1566 1566 1567 1567
1538 1540 1542 1544 1545 1547 1549 1550 1551 1553 1554 1555 1555 1556 1556 1557 1558 1559 1559 1560 1560 1560 1560 1561 1561 1561 1561 1561 1561 1561 1561 1561 1561 1561 1561 1561 1561 1562 1562 1563 1563 1564 1564
1537 1539 1541 1542 1544 1546 1548 1549 1550 1551 1552 1554 1554 1555 1555 1557 1556 1557 1557 1557 1558 1558 1558 1559 1559 1559 1559 1559 1558 1558 1558 1558 1558 1558 1558 1558 1558 1559 1559 1559 1560 1560 1560
1536 1538 1540 1541 1543 1544 1546 1547 1548 1549 1550 1552 1553 1554 1554 1554 1554 1555 1555 1555 1556 1556 1556 1556 1556 1556 1556 1556 1556 1556 1556 1555 1555 1555 1555 1555 1555 1555 1556 1556 1556 1556 1556
1535 1536 1538 1540 1541 1543 1544 1546 1547 1548 1549 1549 1551 1552 1554 1553 1554 1552 1552 1553 1553 1553 1553 1553 1553 1553 1553 1553 1553 1553 1553 1552 1552 1552 1552 1552 1552 1552 1552 1552 1552 1552 1552
1533 1535 1536 1538 1539 1541 1542 1543 1545 1546 1547 1548 1549 1550 1551 1551 1552 1551 1550 1550 1550 1550 1550 1550 1550 1550 1550 1550 1550 1550 1549 1549 1549 1549 1548 1548 1548 1548 1548 1548 1548 1548 1548
1531 1533 1535 1536 1537 1538 1540 1541 1542 1544 1545 1545 1546 1547 1548 1549 1549 1549 1548 1547 1547 1547 1547 1547 1547 1547 1547 1547 1547 1546 1546 1546 1546 1545 1545 1545 1544 1544 1544 1544 1544 1544 1544
1529 1530 1532 1533 1535 1536 1537 1539 1540 1541 1542 1542 1543 1544 1545 1546 1546 1547 1546 1545 1544 1544 1543 1544 1544 1544 1544 1543 1543 1543 1543 1542 1542 1541 1541 1541 1540 1540 1540 1540 1540 1540 1540
1526 1528 1529 1531 1532 1534 1535 1536 1537 1537 1538 1539 1540 1541 1541 1542 1543 1543 1543 1543 1542 1541 1540 1540 1540 1540 1540 1540 1540 1539 1539 1538 1538 1538 1537 1536 1536 1536 1535 1535 1535 1535 1535
1524 1525 1526 1528 1529 1530 1531 1532 1533 1534 1535 1536 1536 1537 1537 1538 1539 1539 1539 1540 1540 1538 1536 1536 1537 1537 1537 1537 1536 1536 1535 1535 1534 1533 1533 1532 1532 1531 1531 1531 1531 1531 1531
1521 1522 1524 1525 1526 1527 1528 1528 1529 1530 1531 1531 1532 1533 1533 1534 1534 1535 1535 1536 1536 1536 1533 1532 1533 1533 1533 1533 1532 1532 1531 1531 1530 1529 1529 1528 1528 1527 1527 1527 1527 1527 1527
1518 1519 1520 1521 1522 1523 1524 1524 1525 1526 1527 1527 1528 1528 1528 1529 1530 1530 1531 1531 1531 1531 1530 1529 1529 1529 1529 1529 1528 1528 1527 1526 1526 1525 1525 1524 1524 1523 1523 1523 1523 1523 1522
1514 1515 1516 1516 1517 1518 1519 1520 1521 1522 1522 1523 1523 1524 1524 1525 1525 1525 1526 1526 1527 1527 1526 1525 1525 1525 1525 1524 1524 1523 1523 1522 1521 1521 1520 1520 1519 1519 1519 1519 1518 1518 1518
1510 1511 1512 1512 1513 1514 1515 1515 1517 1517 1518 1518 1519 1519 1519 1520 1520 1520 1521 1522 1522 1522 1522 1521 1520 1520 1520 1520 1519 1519 1518 1517 1517 1516 1515 1515 1515 1515 1514 1514 1514 1513 1513
1506 1506 1507 1507 1509 1510 1511 1511 1512 1512 1512 1513 1514 1515 1515 1516 1516 1516 1516 1517 1517 1518 1518 1517 1517 1516 1516 1515 1515 1514 1513 1513 1512 1511 1511 1510 1510 1510 1510 1510 1509 1509 1509
1501 1502 1503 1503 1505 1505 1506 1507 1507 1508 1508 1509 1509 1510 1510 1511 1511 1512 1512 1512 1512 1513 1513 1513 1512 1512 1511 1511 1510 1510 1509 1508 1507 1507 1506 1506 1505 1505 1505 1505 1504 1504 1504
1497 1498 1499 1500 1500 1501 1501 1502 1503 1503 1504 1504 1504 1505 1505 1506 1506 1507 1508 1508 1508 1508 1508 1508 1508 1507 1507 1506 1506 1505 1504 1503 1502 1503 1501 1501 1501 1500 1500 1500 1500 1500 1499
1493 1494 1495 1495 1496 1496 1497 1498 1498 1499 1500 1500 1500 1501 1501 1501 1502 1503 1503 1504 1504 1504 1504 1504 1503 1503 1502 1501 1501 1500 1500 1499 1498 1498 1497 1496 1496 1495 1495 1495 1495 1494 1494
1490 1490 1491 1491 1491 1492 1493 1493 1494 1494 1495 1496 1496 1496 1497 1497 1498 1499 1499 1499 1500 1500 1500 1499 1499 1498 1498 1497 1496 1496 1495 1495 1494 1494 1493 1492 1491 1490 1490 1490 1490 1489 1489
1486 1487 1487 1487 1488 1488 1489 1489 1490 1490 1491 1491 1492 1493 1493 1494 1494 1494 1495 1495 1495 1495 1496 1495 1495 1494 1494 1493 1492 1491 1490 1490 1488 1488 1489 1488 1486 1485 1485 1485 1484 1484 1484
1483 1483 1483 1483 1484 1484 1485 1485 1486 1486 1486 1487 1488 1489 1489 1490 1490 1490 1491 1491 1491 1491 1491 1491 1490 1490 1489 1488 1488 1487 1486 1485 1484 1484 1483 1483 1482 1481 1479 1479 1479 1479 1478